The Dalles, WA

10:12 AM PST on November 20, 2017 (GMT -0800)
Columbia Gorge Regional-The Dalles

Weather History for KDLS - March, 2014

Change the Weather History Date:

Wednesday, March 5, 2014

  Actual Average Record
Temperature  
Mean Temperature 48 °F -  
Max Temperature 52 °F 53 °F 66 °F (2005)
Min Temperature 43 °F 34 °F 14 °F (1955)
Degree Days  
Heating Degree Days 18    
Moisture  
Dew Point 47 °F    
Average Humidity 96    
Maximum Humidity 100    
Minimum Humidity 89    
Precipitation  
Precipitation 0.70 in - - ()
Sea Level Pressure  
Sea Level Pressure 29.67 in    
Wind  
Wind Speed 3 mph (NW)    
Max Wind Speed 12 mph    
Max Gust Speed 16 mph    
Visibility 5 miles    
Events Rain    
Averages and records for this station are not official NWS values.
T = Trace of Precipitation, MM = Missing Value Source: NWS Daily Summary

Daily Weather History Graph

Daily Weather History Graph

Search for Another Location

Airport or City:

Trip Planner

Search our weather history database for the weather conditions in past years. The results will help you decide how hot, cold, wet, or windy it might be!

Date:

Astronomy

Mar. 05, 2014 Rise Set
Actual Time 6:35 AM PST 5:57 PM PST
Civil Twilight 6:06 AM PST 6:26 PM PST
Nautical Twilight 5:31 AM PST 7:01 PM PST
Astronomical Twilight 4:57 AM PST 7:35 PM PST
Moon 8:49 AM PST (3/5) 11:27 PM PST (3/5)
Length of Visible Light 12h 20m
Length of Day
11h 21m
Waxing Crescent, 24% of the Moon is Illuminated
Mar 5
Waxing Crescent
Mar 8
First Quarter
Mar 16
Full
Mar 23
Last Quarter
Mar 30
New

Hourly Weather History & Observations

Time (PST) Temp. Windchill Dew Point Humidity Pressure Visibility Wind Dir Wind Speed Gust Speed Precip Events Conditions
12:53 AM 45.0 °F - 43.0 °F 93% 29.87 in 10.0 mi Calm Calm - N/A   Overcast
1:53 AM 45.0 °F 43.5 °F 44.1 °F 97% 29.85 in 10.0 mi WNW 3.5 mph - 0.00 in   Overcast
2:53 AM 45.0 °F - 44.1 °F 97% 29.82 in 9.0 mi Calm Calm - 0.01 in Rain Light Rain
3:53 AM 44.1 °F 41.5 °F 43.0 °F 96% 29.79 in 7.0 mi WNW 4.6 mph - 0.00 in   Overcast
4:39 AM 44.1 °F 41.5 °F 43.0 °F 96% 29.78 in 10.0 mi West 4.6 mph - N/A   Overcast
4:53 AM 43.0 °F 41.3 °F 43.0 °F 100% 29.78 in 7.0 mi WNW 3.5 mph - N/A   Overcast
5:53 AM 45.0 °F - 44.1 °F 97% 29.78 in 7.0 mi Calm Calm - 0.05 in Rain Light Rain
6:53 AM 44.1 °F 42.5 °F 43.0 °F 96% 29.77 in 7.0 mi West 3.5 mph - 0.03 in   Overcast
7:27 AM 45.0 °F 41.2 °F 44.1 °F 97% 29.77 in 8.0 mi WNW 6.9 mph - 0.00 in   Overcast
7:43 AM 44.1 °F 42.5 °F 43.0 °F 96% 29.76 in 4.0 mi North 3.5 mph - 0.00 in Rain Light Rain
7:50 AM 44.6 °F - 44.6 °F 100% 29.77 in 5.0 mi Calm Calm - 0.00 in Rain Light Rain
7:53 AM 44.1 °F 42.5 °F 44.1 °F 100% 29.77 in 5.0 mi Variable 3.5 mph - 0.00 in Rain Light Rain
8:32 AM 46.0 °F - 45.0 °F 96% 29.80 in 2.5 mi Calm Calm - 0.06 in Rain Light Rain
8:53 AM 46.0 °F - 45.0 °F 96% 29.78 in 5.0 mi Calm Calm - 0.09 in Rain Light Rain
9:13 AM 46.9 °F - 46.0 °F 97% 29.79 in 3.0 mi WNW 3.5 mph - 0.01 in Rain Light Rain
9:22 AM 46.9 °F - 45.0 °F 93% 29.79 in 2.5 mi WSW 3.5 mph - 0.03 in Rain Light Rain
9:41 AM 46.9 °F - 45.0 °F 93% 29.78 in 4.0 mi Calm Calm - 0.05 in Rain Light Rain
9:53 AM 46.0 °F - 45.0 °F 96% 29.79 in 5.0 mi Calm Calm - 0.05 in   Overcast
10:12 AM 46.9 °F - 46.0 °F 97% 29.79 in 2.5 mi NNW 3.5 mph - 0.02 in Rain Light Rain
10:19 AM 48.0 °F - 46.0 °F 93% 29.79 in 6.0 mi Calm Calm - 0.02 in Rain Light Rain
10:26 AM 48.0 °F - 46.0 °F 93% 29.78 in 7.0 mi East 3.5 mph - 0.02 in Rain Light Rain
10:53 AM 48.0 °F - 46.9 °F 96% 29.79 in 6.0 mi Calm Calm - 0.03 in Rain Light Rain
11:04 AM 48.9 °F - 46.9 °F 93% 29.78 in 8.0 mi Calm Calm - 0.00 in Rain Light Rain
11:17 AM 48.9 °F - 46.9 °F 93% 29.78 in 10.0 mi Calm Calm - 0.00 in   Overcast
11:53 AM 50.0 °F - 48.0 °F 93% 29.77 in 10.0 mi Calm Calm - 0.00 in   Mostly Cloudy
12:03 PM 50.0 °F - 48.0 °F 93% 29.75 in 8.0 mi SSW 3.5 mph - N/A   Mostly Cloudy
12:11 PM 51.1 °F - 48.0 °F 89% 29.76 in 9.0 mi Calm Calm - N/A   Mostly Cloudy
12:53 PM 51.1 °F - 48.0 °F 89% 29.75 in 10.0 mi North 4.6 mph - 0.00 in   Overcast
1:00 PM 51.1 °F - 48.9 °F 92% 29.74 in 9.0 mi North 4.6 mph - 0.00 in Rain Light Rain
1:53 PM 50.0 °F - 48.9 °F 96% 29.70 in 6.0 mi SSW 4.6 mph - 0.05 in Rain Light Rain
2:53 PM 51.1 °F - 50.0 °F 96% 29.66 in 5.0 mi Calm Calm - 0.03 in Rain Light Rain
3:20 PM 51.1 °F - 50.0 °F 96% 29.63 in 7.0 mi South 5.8 mph - 0.01 in   Mostly Cloudy
3:32 PM 50.0 °F - 50.0 °F 100% 29.62 in 3.0 mi SW 4.6 mph - 0.01 in   Overcast
3:53 PM 51.1 °F - 50.0 °F 96% 29.62 in 2.5 mi WNW 3.5 mph - 0.03 in Rain Light Rain
4:00 PM 51.1 °F - 50.0 °F 96% 29.62 in 2.0 mi WNW 3.5 mph - 0.01 in Rain Light Rain
4:18 PM 51.1 °F - 50.0 °F 96% 29.62 in 4.0 mi Calm Calm - 0.04 in Rain Light Rain
4:40 PM 51.1 °F - 50.0 °F 96% 29.59 in 2.0 mi NNE 3.5 mph - 0.07 in Rain Light Rain
4:53 PM 51.1 °F - 50.0 °F 96% 29.59 in 4.0 mi SE 3.5 mph - 0.07 in Rain Light Rain
5:03 PM 50.0 °F - 48.9 °F 96% 29.58 in 1.8 mi SE 5.8 mph - 0.00 in   Overcast
5:14 PM 50.0 °F - 50.0 °F 100% 29.57 in 2.0 mi North 4.6 mph - 0.00 in   Overcast
5:30 PM 50.0 °F - 50.0 °F 100% 29.57 in 3.0 mi NW 4.6 mph - 0.01 in Rain Light Rain
5:53 PM 50.0 °F - 50.0 °F 100% 29.56 in 5.0 mi Calm Calm - 0.03 in Rain Light Rain
6:03 PM 50.0 °F - 48.9 °F 96% 29.55 in 5.0 mi Calm Calm - 0.01 in Rain Light Rain
6:16 PM 50.0 °F - 48.9 °F 96% 29.55 in 4.0 mi Calm Calm - 0.01 in Rain Light Rain
6:38 PM 50.0 °F - 48.9 °F 96% 29.55 in 2.5 mi Calm Calm - 0.04 in Rain Light Rain
6:48 PM 50.0 °F - 48.2 °F 94% 29.54 in 2.0 mi Calm Calm - 0.06 in Rain Light Rain
6:53 PM 50.0 °F - 48.9 °F 96% 29.54 in 2.0 mi Calm Calm - 0.08 in Rain Light Rain
6:59 PM 50.0 °F - 48.9 °F 96% 29.52 in 1.0 mi North 4.6 mph - 0.01 in Rain Light Rain
7:06 PM 50.0 °F - 48.9 °F 96% 29.53 in 0.8 mi Calm Calm - 0.01 in Rain Light Rain
7:10 PM 50.0 °F - 48.9 °F 96% 29.52 in 1.0 mi Calm Calm - 0.01 in Rain Light Rain
7:24 PM 50.0 °F - 48.0 °F 93% 29.56 in 2.0 mi West 8.1 mph - 0.01 in Rain Light Rain
7:30 PM 48.9 °F - 48.0 °F 97% 29.54 in 0.8 mi Variable 3.5 mph - 0.07 in Rain Light Rain
7:39 PM 48.9 °F - 48.9 °F 100% 29.57 in 1.2 mi NW 4.6 mph - 0.11 in Rain Rain
7:46 PM 50.0 °F - 48.9 °F 96% 29.56 in 3.0 mi North 8.1 mph - 0.12 in Rain Light Rain
7:53 PM 51.1 °F - 50.0 °F 96% 29.55 in 7.0 mi NNW 11.5 mph - 0.14 in Rain Light Rain
8:14 PM 48.9 °F - 48.0 °F 97% 29.55 in 1.5 mi SE 5.8 mph - 0.01 in   Overcast
8:22 PM 50.0 °F - 48.9 °F 96% 29.56 in 2.0 mi SE 6.9 mph - 0.01 in   Overcast
8:29 PM 50.0 °F - 50.0 °F 100% 29.56 in 9.0 mi ESE 4.6 mph - 0.01 in   Overcast
8:53 PM 51.1 °F - 50.0 °F 96% 29.57 in 10.0 mi ENE 3.5 mph - 0.01 in   Overcast
9:31 PM 52.0 °F - 50.0 °F 93% 29.56 in 10.0 mi NE 9.2 mph 16.1 mph 0.00 in   Scattered Clouds
9:53 PM 51.1 °F - 50.0 °F 96% 29.56 in 10.0 mi SE 9.2 mph - 0.00 in   Partly Cloudy
10:53 PM 48.9 °F - 48.0 °F 97% 29.60 in 7.0 mi NW 5.8 mph - N/A   Overcast
11:53 PM 48.9 °F - 48.0 °F 97% 29.60 in 8.0 mi Variable 4.6 mph - N/A   Clear